This is the latest recevied weather packets stored in our database for station/object KD6VPH. If no packets are shown the sender has not sent any weather packets the latest 10 day(s).
| Time | Temp. | Humidity | Pressure | Rain* | Wind** | Luminosity | Snow |
|---|---|---|---|---|---|---|---|
| 1777991707 | 12.78° C | 82% | 1013.5 hPa | 0 mm | - | 46 W/m² | - |
| 1777991107 | 12.78° C | 82% | 1013.5 hPa | 0 mm | - | 35 W/m² | - |
| 1777990507 | 12.22° C | 82% | 1013.4 hPa | 0 mm | - | 30 W/m² | - |
| 1777989907 | 12.22° C | 82% | 1013.3 hPa | 0 mm | - | 21 W/m² | - |
| 1777989307 | 12.22° C | 83% | 1013.2 hPa | 0 mm | - | 19 W/m² | - |
| 1777988707 | 12.22° C | 83% | 1013.2 hPa | 0 mm | - | 14 W/m² | - |
| 1777988113 | 12.22° C | 83% | 1013.1 hPa | 0 mm | - | 11 W/m² | - |
| 1777986907 | 12.22° C | 83% | 1012.9 hPa | 0 mm | - | 5 W/m² | - |
| 1777986307 | 12.22° C | 83% | 1012.9 hPa | 0 mm | - | 0 W/m² | - |
| 1777985707 | 12.22° C | 83% | 1012.7 hPa | 0 mm | - | 0 W/m² | - |
| 1777985108 | 12.22° C | 83% | 1012.6 hPa | 0 mm | - | 0 W/m² | - |
| 1777983308 | 12.22° C | 84% | 1012.3 hPa | 0 mm | - | 0 W/m² | - |
| 1777982708 | 12.22° C | 84% | 1012.2 hPa | 0 mm | - | 0 W/m² | - |
| 1777982108 | 12.22° C | 84% | 1012.2 hPa | 0 mm | - | 0 W/m² | - |
| 1777981508 | 12.22° C | 85% | 1012.1 hPa | 0 mm | - | 0 W/m² | - |
| 1777980908 | 11.67° C | 85% | 1012.2 hPa | 0 mm | - | 0 W/m² | - |
| 1777980308 | 11.67° C | 85% | 1012.3 hPa | 0 mm | - | 0 W/m² | - |
| 1777979716 | 11.67° C | 86% | 1012.2 hPa | 0 mm | - | 0 W/m² | - |
| 1777979108 | 11.67° C | 86% | 1012.3 hPa | 0 mm | - | 0 W/m² | - |
| 1777978508 | 11.67° C | 86% | 1012.2 hPa | 0 mm | - | 0 W/m² | - |
| 1777977908 | 11.67° C | 87% | 1012.1 hPa | 0 mm | - | 0 W/m² | - |
| 1777977310 | 11.11° C | 87% | 1012.2 hPa | 0 mm | - | 0 W/m² | - |
| 1777976708 | 11.11° C | 87% | 1012.1 hPa | 0 mm | - | 0 W/m² | - |
| 1777975508 | 11.11° C | 88% | 1012 hPa | 0 mm | - | 0 W/m² | - |
| 1777974908 | 11.11° C | 88% | 1012 hPa | 0 mm | - | 0 W/m² | - |
* Rain latest hour (hover to see other rain measurements)
** Current wind speed in m/s (hover to see current wind gust speed)